Regional Weather Roundup
Issued by NWS San Diego, CA

Home | Current Version | Previous Version | Text Only | Print | Product List | Glossary On
Versions: 1 2 3 4 5 6 7 8 9 10 11 12 13 14 15 16 17 18 19 20 21 22 23 24 25 26 27 28 29 30 31 32 33 34 35 36 37 38 39 40 41 42 43 44 45 46 47 48 49 50
000
ASUS46 KSGX 260311
RWRSGX

SAN DIEGO HOURLY WEATHER ROUNDUP
NATIONAL WEATHER SERVICE SAN DIEGO CA
800 PM PDT SUN SEP 25 2016

NOTE: "FAIR" INDICATES FEW OR NO CLOUDS BELOW 12,000 FEET WITH NO
SIGNIFICANT WEATHER AND/OR OBSTRUCTIONS TO VISIBILITY.

CAZ042-043-060-061-PZZ750-775-260400-

GREATER SAN DIEGO AREA

CITY           SKY/WX    TMP DP  RH WIND       PRES   REMARKS
LINDBERGH FLD  CLEAR     81  45  28 N17       29.92R
NATIONAL CITY    N/A     83  57  41 CALM      29.93R
CHULA VISTA      N/A     79  56  45 W1        29.84R
IMPERIAL BEACH CLEAR     68  60  75 SW3       29.93R
BROWN FIELD    CLEAR     76  45  33 SW3       29.94R
MIRAMAR MCAS   CLEAR     79  40  24 VRB5      29.93R
MONTGOMERY FLD CLEAR     83  38  20 N7        29.93R

$$

NORTH SAN DIEGO COUNTY

CITY           SKY/WX    TMP DP  RH WIND       PRES   REMARKS
CAMP PENDLETON CLEAR     72  59  63 CALM      29.91R
OCEANSIDE AP   CLEAR     71  59  65 CALM      29.90R
OCEANSIDE HBR    N/A     71  65  82 CALM      29.93R
VISTA            N/A     78  49  34 CALM      29.89R
CARLSBAD       CLEAR     78  51  38 CALM      29.91R
DEL MAR          N/A     75  52  45 CALM      29.94R
LA JOLLA SCRIP   N/A     80  45  29 NW3       29.91R
FALLBROOK        N/A     79  44  28 CALM      29.89R
ESCONDIDO        N/A     83  42  23 CALM      29.94R
SAN MARCOS       N/A     80  44  27 CALM      29.95R
POWAY            N/A     76  45  32 CALM      29.93R

$$

EAST SAN DIEGO COUNTY

CITY           SKY/WX    TMP DP  RH WIND       PRES   REMARKS
RAMONA         CLEAR     73  36  25 CALM      29.98R
SANTEE LAKES     N/A     79  41  25 CALM      29.91R
LA MESA          N/A     82  41  22 CALM      29.84R
JAMUL            N/A     78  42  27 CALM      29.93R
MT. LAGUNA OBS   N/A     61  25  25 NE13      29.76R
CAMPO            N/A     72  31  22 SE5       30.02R

$$

ORANGE COUNTY AND THE LOS ANGELES BASIN

CITY           SKY/WX    TMP DP  RH WIND       PRES   REMARKS
JOHN WAYNE AP  CLEAR     82  48  30 CALM      29.89R
LAGUNA BEACH     N/A     84  42  22 CALM      29.84R
LAKE FOREST FR   N/A     84  26  12 NE3       29.79R
HUNTINGTON BCH   N/A     74  59  58 CALM      29.92R
LOS ALAMITOS   FAIR      79  43  27 W7        29.89S
FULLERTON      CLEAR     84  38  19 CALM      29.89R
LONG BEACH     CLEAR     80  43  26 E6        29.90R
L.A. AP        CLEAR     76  54  46 SW3       29.89R
L.A. DOWNTOWN  CLEAR     79  51  37 CALM      29.89R

$$

THE INLAND EMPIRE

CITY           SKY/WX    TMP DP  RH WIND       PRES   REMARKS
CORONA         CLEAR     88  26  10 NE6       29.93R
CHINO          CLEAR     91  18   7 NE8       29.94R
ONTARIO        CLEAR     90  15   6 NE15G21   29.94R
SAN BERNARDINO CLEAR     90  21   8 N6        29.98R
RIVERSIDE AP   CLEAR     90  21   8 NE8       29.94R
MORENO VALLEY    N/A     83  30  14 SE3       28.10R
MARCH ARB      CLEAR     87  20   8 NE1       29.98R
HORSETHIEF CYN   N/A     84  19   9 W8        29.96R
PERRIS           N/A     87  29  12 NE2       29.97R
HEMET EAST       N/A     82  22  11 CALM      29.97R
FRENCH VALLEY  FAIR      82  30  15 W3        29.97R
TEMECULA         N/A     84  33  16 N1        30.01R

$$

SAN BERNARDINO AND RIVERSIDE COUNTY MOUNTAINS

CITY           SKY/WX    TMP DP  RH WIND       PRES   REMARKS
BIG BEAR AP    CLEAR     55  18  22 NE7       30.35R
PINE COVE        N/A     62  26  25 CALM      29.98R

$$

SOUTHERN DESERT INCLUDING THE COACHELLA VALLEY

CITY           SKY/WX    TMP DP  RH WIND       PRES   REMARKS
PALM SPRINGS   CLEAR     89  30  12 NE3       29.97R
PALM DESERT      N/A     91  33  13 CALM        N/A
THERMAL        CLEAR     83  31  15 W5        29.90R
BLYTHE         CLEAR     89  32  13 N12       29.92R
IMPERIAL AP    CLEAR     86  41  20 N7        29.89R
EL CENTRO NAS  CLEAR     82  36  19 N7        29.91R
YUMA AZ        CLEAR     88  35  15 N5        29.88R
MEXICALI       CLEAR     86  30  13 W7        29.89R

$$

UPPER DESERT

CITY           SKY/WX    TMP DP  RH WIND       PRES   REMARKS
VICTORVILLE AP CLEAR     75  19  12 E6        30.13R
HESPERIA         N/A     75  23  14 E1        30.14R
PALMDALE       CLEAR     78  18  10 NE9       30.10R
LANCASTER      CLEAR     72  16  12 NE6       30.09R
EDWARDS AFB    CLEAR     78  13   8 E5        30.07R
DAGGETT        CLEAR     78  21  12 E7        30.07S
29 PALMS N     CLEAR     80  25  13 NE8       30.14R
NEEDLES        CLEAR     89  31  12 N18       29.99R

$$

REGIONAL REPORTS

CITY           SKY/WX    TMP DP  RH WIND       PRES   REMARKS
SANTA BARBARA  CLEAR     74  48  39 W3        29.92R
SANDBERG       CLEAR     74  14  10 NE9       30.23R
LAS VEGAS NV   CLEAR     83  26  12 N8        30.13R
PHOENIX AZ     PTCLDY    86  38  18 SW6       29.91R
TIJUANA        CLEAR     81  36  19 CALM      29.96R
ENSENADA NW      N/A     89  32  13 NE14      29.87R

$$

OFFSHORE ISLANDS

CITY           SKY/WX    TMP DP  RH WIND       PRES   REMARKS
CATALINA ARPT  CLEAR     80  29  15 SW7       30.00R
SAN NICOLAS IS CLEAR     81  39  22 W16       29.94R

$$

MARINE AND OFFSHORE BUOY REPORTS

STATION/POSITION SKY/WX   TEMP    WIND        PRES    SWELL
                          AIR SEA DIR/SP/G            HT/PER/DIR
                          (F)     (DEG/KT/KT) (MB)    (FT/S/D)
TANNER BANKS               67 65  320/ 10/ 14 1012.7S   5/220/15
S CLEMENTE BASIN           70 69  290/  6/  8 1012.6R   3/200/16
SO. S. ROSA ISLA           66 63  310/ 16/ 17 1013.1F   5/200/16
W. S. BARBARA CH           67 61  310/  8/ 10 1013.8R   5/300/ 8
M. S. BARBARA CH                  250/  6/ 10 1013.4R
S. MONICA BASIN            71 68  320/ 12/ 14 1012.3F
S PEDRO CHANNEL               69                N/A     2/170/17
OCEANSIDE OFFSHR              70                N/A     2/200/15
TORREY PINES OTR              71                N/A     3/200/15
POINT LOMA SOUTH              68                N/A     3/210/15

$$




USA.gov is the U.S. government's official web portal to all federal, state and local government web resources and services.